Waukegan, IL

11:59 AM CST on January 19, 2018 (GMT -0600)
Waukegan Regional

Weather History for KUGN - February, 2013

Change the Weather History Date:

Tuesday, February 12, 2013

  Actual Average Record
Temperature  
Mean Temperature 23 °F -  
Max Temperature 28 °F 32 °F 46 °F (2017)
Min Temperature 17 °F 17 °F -4 °F (2014)
Degree Days  
Heating Degree Days 42 40  
Month to date heating degree days 520 496  
Since 1 July heating degree days 3980 4347  
Cooling Degree Days 0 0  
Month to date cooling degree days 0 0  
Year to date cooling degree days 0 0  
Moisture  
Dew Point 17 °F    
Average Humidity 80    
Maximum Humidity 92    
Minimum Humidity 68    
Precipitation  
Precipitation 0.00 in 0.06 in 0.18 in (2007)
Month to date precipitation 0.02 0.67  
Year to date precipitation 1.30 2.06  
Sea Level Pressure  
Sea Level Pressure 30.04 in    
Wind  
Wind Speed 7 mph (WSW)    
Max Wind Speed 18 mph    
Max Gust Speed 22 mph    
Visibility 9 miles    
Events      
T = Trace of Precipitation, MM = Missing Value Source: NWS Daily Summary

Daily Weather History Graph

Daily Weather History Graph

Search for Another Location

Airport or City:

Trip Planner

Search our weather history database for the weather conditions in past years. The results will help you decide how hot, cold, wet, or windy it might be!

Date:

Astronomy

Feb. 12, 2013 Rise Set
Actual Time 6:51 AM CST 5:20 PM CST
Civil Twilight 6:22 AM CST 5:49 PM CST
Nautical Twilight 5:49 AM CST 6:22 PM CST
Astronomical Twilight 5:17 AM CST 6:54 PM CST
Moon 7:44 AM CST (2/12) 8:25 PM CST (2/12)
Length of Visible Light 11h 26m
Length of Day
10h 28m
Waxing Crescent, 7% of the Moon is Illuminated
Feb 12
Waxing Crescent
Feb 17
First Quarter
Feb 25
Full
Mar 4
Last Quarter
Mar 11
New

Hourly Weather History & Observations

Time (CST) Temp. Windchill Dew Point Humidity Pressure Visibility Wind Dir Wind Speed Gust Speed Precip Events Conditions
12:52 AM 27.0 °F 16.7 °F 19.0 °F 72% 30.04 in 10.0 mi West 11.5 mph 19.6 mph N/A   Overcast
1:52 AM 27.0 °F 17.3 °F 19.0 °F 72% 30.06 in 10.0 mi West 10.4 mph 18.4 mph N/A   Overcast
2:52 AM 26.1 °F 18.4 °F 19.0 °F 75% 30.07 in 10.0 mi West 6.9 mph - N/A   Overcast
3:52 AM 25.0 °F 16.3 °F 18.0 °F 75% 30.08 in 10.0 mi West 8.1 mph 18.4 mph N/A   Overcast
4:52 AM 24.1 °F 15.2 °F 18.0 °F 77% 30.10 in 10.0 mi WSW 8.1 mph - N/A   Overcast
5:52 AM 23.0 °F 12.4 °F 16.0 °F 74% 30.09 in 10.0 mi West 10.4 mph 18.4 mph N/A   Overcast
6:52 AM 23.0 °F 13.9 °F 16.0 °F 74% 30.10 in 10.0 mi WSW 8.1 mph - N/A   Overcast
7:52 AM 23.0 °F 14.7 °F 16.0 °F 74% 30.12 in 10.0 mi West 6.9 mph - N/A   Overcast
8:52 AM 24.1 °F 14.4 °F 17.1 °F 75% 30.11 in 10.0 mi West 9.2 mph - N/A   Overcast
9:52 AM 24.1 °F 14.4 °F 17.1 °F 75% 30.11 in 9.0 mi West 9.2 mph - N/A   Overcast
10:52 AM 25.0 °F 17.1 °F 18.0 °F 75% 30.12 in 10.0 mi West 6.9 mph - N/A   Overcast
11:52 AM 26.1 °F 18.4 °F 18.0 °F 71% 30.09 in 10.0 mi West 6.9 mph - N/A   Overcast
12:52 PM 26.1 °F 19.4 °F 19.0 °F 75% 30.04 in 10.0 mi WSW 5.8 mph 18.4 mph N/A   Overcast
1:52 PM 27.0 °F 18.0 °F 17.1 °F 66% 30.04 in 10.0 mi West 9.2 mph - N/A   Overcast
2:52 PM 27.0 °F 19.5 °F 18.0 °F 69% 30.04 in 10.0 mi Variable 6.9 mph - N/A   Overcast
2:56 PM 28.4 °F 19.7 °F 17.6 °F 64% 29.99 in 10.0 mi WSW 9.2 mph - N/A   Mostly Cloudy
3:52 PM 26.1 °F 17.6 °F 18.0 °F 71% 30.02 in 10.0 mi WSW 8.1 mph - N/A   Mostly Cloudy
4:52 PM 25.0 °F 18.1 °F 19.0 °F 78% 30.02 in 10.0 mi WSW 5.8 mph - N/A   Scattered Clouds
5:52 PM 24.1 °F - 18.0 °F 77% 30.01 in 10.0 mi Calm Calm - N/A   Clear
6:52 PM 19.9 °F - 16.0 °F 85% 30.00 in 9.0 mi Calm Calm - N/A   Clear
7:52 PM 18.0 °F 12.7 °F 15.1 °F 88% 29.99 in 8.0 mi SSW 3.5 mph - N/A   Clear
8:52 PM 18.0 °F - 15.1 °F 88% 29.99 in 6.0 mi Calm Calm - N/A   Clear
9:52 PM 19.0 °F 10.0 °F 16.0 °F 88% 29.97 in 7.0 mi SSW 6.9 mph - N/A   Clear
10:52 PM 18.0 °F 8.7 °F 16.0 °F 92% 29.96 in 6.0 mi SSW 6.9 mph - N/A   Clear
11:52 PM 21.0 °F 12.4 °F 19.0 °F 92% 29.94 in 5.0 mi SW 6.9 mph - N/A   Clear